GW3664 Weather Reports


Display with metric or nautical units.
time (UTC)temp
F
wind
direction
speed
MPH
gust
MPH
rain 1hr
in
rain 24hr
in
rain mn
in
humidity
%
barometer
mb
20260504050549 54 0 1.0 3.0 0.00 0.00 0.00 44 1007.2
20260504050105 54 319 0.0 3.0 0.00 0.00 0.00 44 1007.1
20260504045553 54 319 1.0 3.0 0.00 0.00 0.00 45 1007.0
20260504045051 54 319 2.0 4.0 0.00 0.00 0.00 44 1007.1
20260504044557 54 319 0.0 4.0 0.00 0.00 0.00 45 1007.1
20260504044050 55 0 2.0 4.0 0.00 0.00 0.00 44 1007.1
20260504043552 55 319 2.0 4.0 0.00 0.00 0.00 43 1007.1
20260504043054 55 311 1.0 4.0 0.00 0.00 0.00 43 1007.1
20260504042552 56 313 1.0 4.0 0.00 0.00 0.00 43 1007.0
20260504042051 56 313 0.0 4.0 0.00 0.00 0.00 42 1007.1
20260504041549 56 307 2.0 4.0 0.00 0.00 0.00 42 1007.1
20260504041049 57 304 1.0 4.0 0.00 0.00 0.00 41 1007.1
20260504040552 57 309 2.0 4.0 0.00 0.00 0.00 41 1007.2
20260504040053 57 309 1.0 4.0 0.00 0.00 0.00 41 1007.1
20260504035549 57 302 2.0 4.0 0.00 0.00 0.00 42 1007.0
20260504035051 58 301 2.0 4.0 0.00 0.00 0.00 42 1007.0
20260504034554 58 307 2.0 4.0 0.00 0.00 0.00 41 1006.9
20260504034052 59 307 1.0 3.0 0.00 0.00 0.00 40 1007.0
20260504033551 59 297 1.0 3.0 0.00 0.00 0.00 40 1006.9
20260504033054 60 309 2.0 3.0 0.00 0.00 0.00 39 1006.8
20260504032548 60 308 1.0 3.0 0.00 0.00 0.00 39 1006.8
20260504032052 60 0 0.0 4.0 0.00 0.00 0.00 40 1006.8
20260504031551 61 342 1.0 4.0 0.00 0.00 0.00 39 1006.9
20260504031052 61 349 0.0 4.0 0.00 0.00 0.00 38 1006.8
20260504030552 62 0 0.0 5.0 0.00 0.00 0.00 37 1006.9
20260504030054 63 346 1.0 5.0 0.00 0.00 0.00 37 1006.8
20260504025552 63 0 1.0 7.0 0.00 0.00 0.00 37 1006.8
20260504025049 64 347 2.0 7.0 0.00 0.00 0.00 37 1006.7
20260504024608 65 315 2.0 8.0 0.00 0.00 0.00 36 1006.6
20260504024050 65 348 3.0 8.0 0.00 0.00 0.00 35 1006.6
20260504023553 66 350 2.0 5.0 0.00 0.00 0.00 34 1006.4
20260504023057 67 320 2.0 6.0 0.00 0.00 0.00 34 1006.2
20260504022555 67 336 1.0 6.0 0.00 0.00 0.00 33 1006.2
20260504022052 68 321 3.0 6.0 0.00 0.00 0.00 32 1006.1
20260504021559 68 333 3.0 6.0 0.00 0.00 0.00 31 1006.0
20260504021052 69 306 2.0 4.0 0.00 0.00 0.00 30 1006.0
20260504020551 70 314 1.0 4.0 0.00 0.00 0.00 29 1006.0
20260504020054 71 313 1.0 5.0 0.00 0.00 0.00 29 1005.9
20260504015551 71 319 2.0 5.0 0.00 0.00 0.00 27 1006.0
20260504015052 72 313 2.0 5.0 0.00 0.00 0.00 26 1005.9
20260504014604 72 320 2.0 5.0 0.00 0.00 0.00 26 1005.9
20260504014051 73 304 2.0 5.0 0.00 0.00 0.00 24 1005.9
20260504013552 74 301 2.0 6.0 0.00 0.00 0.00 23 1006.0
20260504013058 74 0 2.0 9.0 0.00 0.00 0.00 22 1006.1
20260504012555 74 273 2.0 10.0 0.00 0.00 0.00 20 1006.0
20260504012052 74 274 4.0 11.0 0.00 0.00 0.00 19 1006.1
20260504011555 74 246 6.0 11.0 0.00 0.00 0.00 19 1006.1
20260504011051 75 265 4.0 11.0 0.00 0.00 0.00 20 1006.1
20260504010550 75 311 4.0 12.0 0.00 0.00 0.00 19 1006.2
20260504005551 76 306 5.0 11.0 0.00 0.00 0.00 20 1006.3
20260504005051 76 285 5.0 11.0 0.00 0.00 0.00 20 1006.3
20260504004558 76 280 6.0 11.0 0.00 0.00 0.00 20 1006.4
20260504004050 76 277 4.0 9.0 0.00 0.00 0.00 20 1006.4
20260504003553 76 263 5.0 12.0 0.00 0.00 0.00 20 1006.5
20260504003055 76 322 7.0 12.0 0.00 0.00 0.00 20 1006.5
20260504002550 77 259 6.0 11.0 0.00 0.00 0.00 19 1006.6
20260504002052 77 251 4.0 11.0 0.00 0.00 0.00 20 1006.6
20260504001552 76 257 5.0 11.0 0.00 0.00 0.00 20 1006.6
20260504001052 76 215 3.0 14.0 0.00 0.00 0.00 19 1006.6
20260504000552 77 246 5.0 14.0 0.00 0.00 0.00 20 1006.7
20260504000130 77 233 7.0 15.0 0.00 0.00 0.00 20 1006.8
20260503235550 77 267 7.0 15.0 0.00 0.00 0.00 20 1006.9
20260503235051 77 213 4.0 11.0 0.00 0.00 0.00 20 1007.0
20260503234559 77 313 4.0 11.0 0.00 0.00 0.00 20 1006.9
20260503234054 77 307 4.0 11.0 0.00 0.00 0.00 20 1006.9
20260503233551 76 270 4.0 13.0 0.00 0.00 0.00 20 1007.0
20260503233051 76 267 5.0 13.0 0.00 0.00 0.00 19 1007.1
20260503232551 76 245 3.0 10.0 0.00 0.00 0.00 22 1007.2
20260503232051 77 266 6.0 11.0 0.00 0.00 0.00 21 1007.2
20260503231555 77 327 5.0 15.0 0.00 0.00 0.00 20 1007.2
20260503231051 77 299 6.0 15.0 0.00 0.00 0.00 19 1007.3
20260503230551 77 263 7.0 15.0 0.00 0.00 0.00 19 1007.4
20260503230055 77 250 4.0 17.0 0.00 0.00 0.00 19 1007.5
20260503225550 76 236 9.0 17.0 0.00 0.00 0.00 21 1007.5
20260503225052 77 269 6.0 11.0 0.00 0.00 0.00 20 1007.5
20260503224552 77 252 6.0 11.0 0.00 0.00 0.00 18 1007.6
20260503224053 77 269 5.0 15.0 0.00 0.00 0.00 18 1007.6
20260503223551 76 321 7.0 15.0 0.00 0.00 0.00 19 1007.7
20260503223054 76 248 7.0 17.0 0.00 0.00 0.00 20 1007.7
20260503222551 76 273 7.0 17.0 0.00 0.00 0.00 19 1007.8
20260503222051 76 214 7.0 20.0 0.00 0.00 0.00 22 1007.9
20260503221558 77 241 11.0 20.0 0.00 0.00 0.00 21 1008.0
20260503221053 77 249 3.0 15.0 0.00 0.00 0.00 23 1008.0
20260503220551 76 254 8.0 15.0 0.00 0.00 0.00 23 1008.1
20260503220057 76 309 5.0 12.0 0.00 0.00 0.00 23 1008.1
20260503215551 76 249 4.0 12.0 0.00 0.00 0.00 24 1008.2
20260503215051 76 278 3.0 12.0 0.00 0.00 0.00 22 1008.4
20260503214552 76 277 5.0 16.0 0.00 0.00 0.00 23 1008.5
20260503214051 76 227 5.0 16.0 0.00 0.00 0.00 23 1008.6
20260503213550 76 227 5.0 12.0 0.00 0.00 0.00 22 1008.7
20260503213052 75 275 5.0 12.0 0.00 0.00 0.00 24 1008.8
20260503212550 75 279 7.0 14.0 0.00 0.00 0.00 24 1008.9
20260503212051 75 238 5.0 14.0 0.00 0.00 0.00 24 1009.1
20260503211602 74 226 10.0 14.0 0.00 0.00 0.00 25 1009.3
20260503211052 74 207 6.0 10.0 0.00 0.00 0.00 26 1009.1
20260503210551 74 269 5.0 11.0 0.00 0.00 0.00 25 1009.3
20260503210052 75 226 5.0 14.0 0.00 0.00 0.00 26 1009.3
20260503205551 74 334 5.0 14.0 0.00 0.00 0.00 25 1009.4
20260503205053 74 178 5.0 10.0 0.00 0.00 0.00 26 1009.6
20260503204554 74 284 2.0 12.0 0.00 0.00 0.00 26 1009.6
20260503204051 74 301 6.0 17.0 0.00 0.00 0.00 26 1009.8
20260503203609 74 331 7.0 17.0 0.00 0.00 0.00 25 1009.8
20260503203110 73 232 7.0 14.0 0.00 0.00 0.00 26 1009.9
20260503202553 73 266 4.0 15.0 0.00 0.00 0.00 27 1009.9
20260503202054 73 217 9.0 15.0 0.00 0.00 0.00 26 1010.1
20260503201557 74 280 5.0 14.0 0.00 0.00 0.00 26 1010.1
20260503201052 73 312 6.0 14.0 0.00 0.00 0.00 25 1010.2
20260503200554 73 248 7.0 14.0 0.00 0.00 0.00 26 1010.3
20260503200051 73 291 3.0 10.0 0.00 0.00 0.00 27 1010.3
20260503195551 73 294 2.0 14.0 0.00 0.00 0.00 27 1010.6
20260503195052 73 297 4.0 14.0 0.00 0.00 0.00 28 1010.8
20260503194559 72 233 8.0 12.0 0.00 0.00 0.00 26 1010.9
20260503194054 73 281 6.0 11.0 0.00 0.00 0.00 26 1011.0
20260503193551 72 285 4.0 12.0 0.00 0.00 0.00 28 1011.1
20260503193053 72 169 5.0 12.0 0.00 0.00 0.00 26 1011.2
20260503192551 73 0 2.0 13.0 0.00 0.00 0.00 29 1011.3
20260503192050 72 316 1.0 13.0 0.00 0.00 0.00 28 1011.4
20260503191554 72 315 3.0 10.0 0.00 0.00 0.00 29 1011.6
20260503191055 72 246 3.0 11.0 0.00 0.00 0.00 29 1011.7
20260503190552 71 285 5.0 14.0 0.00 0.00 0.00 28 1011.8
20260503190054 71 288 4.0 14.0 0.00 0.00 0.00 27 1011.7
20260503185551 71 274 5.0 14.0 0.00 0.00 0.00 30 1011.9
20260503185052 71 328 4.0 13.0 0.00 0.00 0.00 31 1011.9
20260503184553 70 215 5.0 15.0 0.00 0.00 0.00 31 1012.0
20260503184053 70 238 8.0 15.0 0.00 0.00 0.00 30 1012.0
20260503183551 70 246 9.0 15.0 0.00 0.00 0.00 28 1012.1
20260503183052 70 223 6.0 14.0 0.00 0.00 0.00 30 1012.2
20260503182551 70 253 6.0 16.0 0.00 0.00 0.00 29 1012.4
20260503182053 70 291 5.0 16.0 0.00 0.00 0.00 31 1012.4
20260503181603 70 262 2.0 10.0 0.00 0.00 0.00 32 1012.4
20260503181051 69 346 2.0 8.0 0.00 0.00 0.00 36 1012.3
20260503180551 69 244 2.0 7.0 0.00 0.00 0.00 36 1012.6
20260503180057 69 231 2.0 8.0 0.00 0.00 0.00 36 1012.6
20260503175551 68 0 1.0 8.0 0.00 0.00 0.00 37 1012.7
20260503175052 68 232 1.0 7.0 0.00 0.00 0.00 39 1012.8
20260503174554 68 82 2.0 9.0 0.00 0.00 0.00 38 1012.8
20260503174054 68 119 2.0 10.0 0.00 0.00 0.00 40 1012.9
20260503173551 67 106 3.0 10.0 0.00 0.00 0.00 44 1013.1
20260503173059 67 69 3.0 8.0 0.00 0.00 0.00 42 1013.2
20260503172551 66 78 1.0 8.0 0.00 0.00 0.00 41 1013.3
20260503172052 66 237 3.0 8.0 0.00 0.00 0.00 41 1013.3
20260503171552 66 173 1.0 5.0 0.00 0.00 0.00 42 1013.4
20260503171052 66 0 1.0 5.0 0.00 0.00 0.00 43 1013.4
20260503170548 65 243 2.0 5.0 0.00 0.00 0.00 44 1013.5
20260503150551 57 238 1.0 7.0 0.00 0.00 0.00 56 1014.4
20260503131056 45 0 0.0 0.0 0.00 0.00 0.00 77 1015.1
20260503130550 45 0 0.0 0.0 0.00 0.00 0.00 77 1015.0
20260503110552 46 304 4.0 8.0 0.00 0.00 0.00 70 1014.9
20260503081553 48 0 0.0 2.0 0.00 0.00 0.00 68 1014.7
20260503081055 48 0 0.0 0.0 0.00 0.00 0.00 67 1014.7
20260503080555 48 0 0.0 0.0 0.00 0.00 0.00 66 1014.8